Dewpoint
51 51 51 50 50 50 50 51 51 51 51 50 50 50 51 52 52 52 53 53 53 52 52 52 53 53 46 18 10 43 52 50 36 25 18 25 21 20 19 19 18 17 31 42 46 47 48
48 48 48 48 48 48 48 49 49 49 49 49 50 50 50 50 51 52 52 53 52 52 51 53 53 52 38 5 19 37 42 37 27 25 26 26 21 21 20 20 24 33 41 43 45 46 48
46 46 46 46 46 47 47 48 48 48 48 48 49 49 49 50 50 51 52 52 51 51 52 52 52 50 33 9 30 40 38 29 27 26 25 26 22 22 22 20 35 40 36 39 42 43 44
44 44 44 45 45 45 45 45 46 46 47 47 47 48 49 49 49 50 52 51 51 50 52 51 52 47 18 27 37 38 35 31 30 27 26 28 24 23 22 23 32 25 32 29 33 40 44
43 43 43 44 44 44 44 44 44 44 45 46 46 47 48 48 49 50 51 51 49 50 52 52 47 42 18 32 32 34 33 26 28 29 28 25 24 24 22 20 18 22 21 25 25 38 42
42 42 42 43 43 42 43 43 44 44 44 44 45 47 47 48 49 49 50 48 48 49 50 49 45 32 27 26 33 32 34 32 27 25 23 23 24 20 22 18 5 15 19 19 19 29 40
41 41 41 42 42 42 41 42 43 43 44 44 44 46 46 48 48 49 48 44 39 38 42 36 38 32 32 36 39 26 30 28 26 24 20 24 20 18 19 20 19 19 19 19 20 24 35
41 41 41 41 41 41 41 41 41 43 43 43 43 45 46 47 48 49 42 39 38 40 37 43 44 45 45 42 34 33 27 20 21 18 20 18 15 17 20 22 21 21 20 20 21 23 30
41 41 41 40 40 41 41 41 41 42 42 42 43 44 45 46 47 45 40 34 40 44 43 40 44 43 39 41 33 31 19 19 17 16 17 16 14 21 20 22 22 22 21 22 21 30 33
41 41 41 40 40 40 41 41 41 41 41 41 44 44 45 46 44 45 36 42 43 44 34 25 37 37 37 39 28 33 20 18 18 15 17 18 20 21 22 22 23 20 23 23 25 26 22
41 41 41 41 40 40 41 41 41 41 40 41 44 45 45 45 44 43 41 45 46 49 6 24 33 33 33 24 15 16 20 19 16 17 21 16 16 17 21 21 23 21 25 27 29 28 26
41 41 42 41 40 40 40 41 41 40 40 41 43 45 45 43 44 44 45 45 46 24 7 25 23 26 22 16 15 19 19 23 21 18 21 18 21 23 23 24 23 24 22 24 26 25 21
42 42 42 42 41 40 40 40 41 40 41 42 44 45 45 44 37 44 45 45 28 16 22 21 17 17 20 14 12 16 20 22 19 18 19 22 22 26 26 23 24 23 22 19 19 19 19
44 43 43 43 41 40 40 40 41 42 42 42 45 46 46 45 45 45 43 39 13 13 22 27 17 15 16 14 13 18 23 22 25 25 23 21 17 27 29 27 24 23 22 21 17 16 21
45 45 44 44 42 40 40 40 40 41 42 42 44 44 43 43 46 44 42 31 13 19 29 27 17 14 14 14 14 22 26 24 26 26 22 22 20 25 31 31 29 25 24 28 24 26 24
44 45 45 44 42 41 40 40 40 40 41 43 41 40 40 44 46 45 36 24 28 34 37 33 18 16 14 14 14 20 24 27 25 29 30 22 16 25 31 31 32 30 32 25 26 19 16
44 44 44 44 43 42 41 40 40 39 41 42 40 37 39 47 47 44 28 22 23 30 35 33 25 23 17 15 22 24 25 26 29 30 30 26 21 22 30 32 32 30 28 30 29 28 25
43 44 44 44 43 42 41 40 40 39 41 38 39 31 44 48 41 39 33 31 36 32 32 33 28 25 22 28 28 27 26 25 29 31 27 31 28 28 30 35 35 36 33 29 21 23 28
41 43 44 44 44 43 41 40 39 39 39 37 34 34 42 48 33 34 36 36 32 26 23 19 25 25 28 29 24 26 26 28 27 25 27 28 25 26 26 26 29 30 35 34 31 29 27
39 42 43 44 44 43 41 40 39 39 40 40 37 32 37 45 41 29 30 25 22 26 24 20 25 24 26 28 30 27 27 30 32 33 32 31 30 23 16 23 30 28 32 34 31 26 29
39 40 41 42 44 44 41 40 39 39 41 43 39 35 37 34 37 40 35 31 28 28 24 28 22 22 25 26 29 28 30 30 31 35 31 32 29 31 31 32 32 32 32 33 30 29 27
40 39 41 41 43 44 41 40 39 39 40 40 36 35 37 36 38 39 38 34 28 28 32 23 22 27 26 24 24 27 29 29 28 30 30 32 29 30 29 29 30 30 32 33 33 31 32
40 39 39 40 42 43 41 40 38 38 38 34 36 39 36 35 39 37 35 35 32 37 31 31 28 27 26 28 30 33 31 32 30 28 29 30 30 27 25 29 25 24 29 30 29 30 32
40 40 39 40 41 43 42 40 39 38 39 38 38 36 32 32 37 37 37 36 36 37 35 32 30 28 31 33 31 30 31 31 31 31 32 30 28 27 25 23 11 23 27 31 31 32 31
40 40 40 39 41 43 42 40 39 37 38 39 39 36 34 30 36 36 36 35 39 36 37 33 32 34 34 30 26 25 25 26 28 32 31 31 29 26 23 22 20 25 30 30 27 31 34
40 40 40 39 40 42 43 40 39 37 38 39 38 41 38 32 35 38 36 37 36 34 30 31 34 34 31 26 23 15 15 21 23 30 31 29 29 24 24 19 17 23 27 31 32 28 35
39 39 39 40 39 41 43 40 39 37 38 39 37 41 37 33 38 39 35 36 35 35 32 31 31 30 31 23 22 20 22 24 23 24 28 28 28 24 25 24 25 28 30 32 26 28 35
39 39 40 40 40 40 43 41 39 37 37 39 34 40 34 33 34 38 39 37 36 36 33 31 30 30 29 21 24 25 25 26 26 28 28 27 26 26 25 22 20 32 32 28 33 36 35
39 39 40 40 40 40 42 41 39 37 37 38 32 35 37 35 35 41 41 41 40 39 37 35 31 30 31 26 28 28 28 30 28 26 33 28 29 28 28 29 35 37 36 36 36 36 36
Wind_Speed
17 17 18 17 17 18 17 18 19 20 21 21 22 23 24 25 26 27 28 29 28 27 28 23 16 14 3 2 8 1 4 7 4 3 3 2 2 1 0 2 2 4 0 4 6 9 10
17 17 18 18 19 18 18 19 19 20 21 22 22 24 25 26 27 29 30 32 30 28 29 19 8 6 1 8 1 4 3 4 4 3 3 2 1 1 0 2 1 1 4 8 4 5 6
18 18 18 18 18 19 19 19 21 21 22 23 24 24 25 27 28 29 33 33 31 27 23 9 4 2 1 13 2 4 5 2 2 3 2 2 1 1 1 1 3 8 3 4 4 5 3
17 17 18 18 18 18 19 20 21 21 22 22 23 23 25 27 28 30 34 35 32 27 12 3 3 2 7 4 3 6 4 3 4 3 2 2 2 1 0 4 3 1 2 2 1 5 3
17 17 17 18 19 19 20 21 21 22 22 22 23 23 25 26 28 31 35 37 30 6 2 4 2 1 8 7 4 2 5 2 2 2 2 1 2 2 2 2 2 2 5 4 4 9 5
15 16 17 17 18 19 21 22 23 24 24 24 24 25 26 27 28 30 37 35 8 4 4 4 3 3 4 3 6 5 2 3 2 1 2 2 4 1 2 2 8 5 5 5 8 6 8
15 16 17 18 19 19 20 21 21 23 25 25 25 25 28 30 29 31 23 6 7 3 5 5 4 5 8 9 4 1 2 6 2 4 1 3 2 9 9 7 5 4 3 8 9 7 9
13 14 15 16 17 19 20 21 23 24 25 26 26 27 29 30 31 31 8 6 5 4 12 10 16 13 11 2 5 2 6 5 3 4 1 2 9 11 6 4 7 7 7 14 13 5 14
12 13 15 17 18 19 20 20 22 23 25 26 26 26 29 31 36 5 4 7 4 1 5 9 6 4 4 12 7 5 8 5 3 3 5 7 7 2 5 6 9 9 10 7 6 3 4
9 12 14 16 17 19 21 22 24 24 24 26 25 25 26 33 3 9 1 7 7 5 6 5 3 3 5 4 4 5 6 3 2 4 3 6 3 3 8 4 8 4 7 4 2 5 6
6 10 13 15 17 19 21 22 24 26 27 27 26 25 24 18 11 6 6 16 7 2 4 1 2 4 5 6 4 1 1 3 6 5 2 5 8 8 6 2 5 3 2 1 2 4 1
3 7 10 13 16 18 20 22 24 26 28 29 28 27 22 7 7 9 12 16 1 2 7 2 6 6 6 2 1 3 3 5 2 3 2 8 3 2 2 2 1 4 2 4 4 2 6
1 5 8 12 16 18 20 23 25 26 28 30 30 28 19 6 4 2 15 3 3 6 3 4 5 7 8 5 3 2 3 3 1 1 2 4 3 4 3 2 2 4 4 5 4 3 6
3 4 7 10 13 17 20 23 25 27 29 31 32 26 5 9 7 7 5 2 7 4 6 4 1 4 9 8 2 2 5 5 5 2 1 2 1 8 9 3 2 3 1 3 6 8 10
5 5 7 9 13 16 19 22 25 27 30 33 27 8 8 5 13 4 2 6 8 6 2 4 1 4 6 4 4 4 2 3 2 2 3 2 1 1 9 7 3 1 2 1 2 1 2
9 6 6 8 11 15 18 22 25 27 30 32 14 9 7 4 12 6 3 7 5 5 5 3 5 5 11 8 8 5 6 1 2 2 2 3 2 5 4 3 12 6 2 1 3 4 7
10 9 7 7 10 14 17 21 24 27 30 26 6 8 3 2 5 2 7 8 7 10 7 5 3 4 4 6 6 4 3 1 2 2 2 3 1 2 3 7 4 4 3 7 5 2 2
12 10 9 7 10 12 16 19 22 25 28 12 8 6 4 2 5 2 8 5 5 8 3 7 4 3 5 4 5 4 4 1 2 2 3 1 4 3 2 2 3 3 3 2 2 3 2
11 12 11 9 9 11 14 18 21 23 21 9 9 6 5 3 6 5 5 5 6 7 5 6 3 2 3 5 5 5 4 1 3 3 4 5 2 4 1 2 1 5 3 4 7 3 4
10 11 12 11 9 10 13 17 21 24 25 6 4 5 3 5 2 3 12 8 5 6 14 10 6 2 4 4 5 7 6 2 3 5 7 5 4 1 2 2 1 1 3 2 2 3 6
8 10 11 11 10 9 11 15 20 25 29 2 3 3 3 3 8 13 5 2 4 6 8 5 2 4 6 5 4 6 4 7 3 5 4 4 5 6 8 7 5 4 3 4 4 3 1
7 9 10 12 11 8 9 13 18 23 25 3 6 6 8 9 11 10 11 5 6 6 4 5 5 4 3 6 6 12 10 5 5 4 3 3 5 6 4 4 1 3 3 9 11 9 9
8 8 10 11 12 8 7 10 14 19 13 5 4 4 5 8 6 6 4 5 3 4 6 4 4 6 5 2 4 11 4 9 10 8 5 3 9 4 5 2 1 1 1 2 4 4 2
8 8 9 11 12 10 4 7 11 13 10 3 2 4 4 7 8 5 10 9 11 8 7 7 1 5 6 16 17 17 19 16 14 10 5 10 8 2 3 2 3 1 4 2 9 3 3
8 8 9 10 11 12 4 5 9 11 13 3 4 2 4 7 10 7 14 11 12 8 8 8 3 1 16 7 12 7 4 4 6 9 6 5 7 4 3 3 2 2 4 5 1 2 4
7 7 8 10 11 11 6 5 7 11 14 6 4 5 5 7 3 8 12 8 4 4 1 2 3 7 4 5 4 4 5 4 4 3 7 10 8 3 3 1 1 1 3 4 5 2 4
8 8 9 10 11 11 9 4 7 10 13 10 4 3 3 6 4 6 5 5 6 4 3 2 4 2 3 4 3 3 3 4 7 8 5 4 3 3 3 2 1 3 5 3 1 2 3
8 8 9 9 10 11 10 5 6 9 12 10 8 2 2 5 13 7 5 8 10 3 1 0 3 1 3 3 3 3 3 4 4 3 4 6 5 3 3 3 2 2 1 2 5 4 8
7 8 8 9 10 11 11 5 5 8 10 8 4 4 4 7 9 11 26 29 20 23 8 3 2 3 4 6 2 4 3 3 4 5 2 3 2 5 0 4 4 4 8 8 8 13 9
Wind_Direction
48 48 50 39 34 28 20 14 11 8 4 3 357 352 347 342 339 335 328 324 321 321 320 321 307 306 312 348 255 352 120 140 149 159 162 154 72 121 348 302 287 228 137 74 113 113 107
49 48 42 38 29 23 18 13 11 8 3 1 358 353 346 339 337 332 327 323 320 322 322 325 304 292 178 289 171 356 192 176 184 165 135 140 65 250 125 336 334 142 113 137 157 133 128
47 44 39 37 30 24 18 13 9 5 3 360 356 351 343 338 335 329 322 318 317 318 316 319 276 236 212 260 13 12 179 235 204 181 145 183 154 149 237 358 140 144 97 135 164 158 137
45 42 39 35 30 24 19 15 10 3 1 356 352 348 341 336 332 325 317 312 312 309 302 285 208 276 258 246 282 294 182 241 211 214 226 256 185 160 176 122 89 46 62 196 146 171 129
41 38 36 32 27 22 18 14 8 3 359 354 350 345 338 331 326 322 314 308 308 291 306 145 287 302 281 318 304 10 178 188 144 180 243 64 101 69 61 158 206 32 227 219 271 199 154
36 34 32 29 24 19 15 10 6 2 357 353 349 346 336 327 327 321 316 307 286 317 234 231 255 297 279 317 309 329 200 197 208 345 73 72 63 94 69 174 249 218 207 217 240 195 201
31 28 26 23 20 16 13 9 4 360 355 352 349 344 337 331 330 325 327 351 6 337 12 253 253 269 286 315 287 268 158 133 102 69 277 30 260 265 272 239 241 196 222 259 256 201 194
29 24 22 21 18 13 9 5 1 357 354 353 349 344 338 333 326 322 311 70 74 296 306 272 252 256 263 309 291 287 152 164 162 232 127 320 280 273 255 224 211 220 248 260 275 241 207
25 20 17 15 12 8 6 3 358 356 353 349 347 343 338 334 321 9 348 94 353 153 272 293 224 232 218 170 214 247 175 151 178 205 228 238 257 254 284 271 218 226 238 253 258 110 183
19 15 12 10 8 5 1 357 355 353 349 346 343 341 341 337 18 337 8 335 338 156 319 276 258 262 154 188 209 220 196 151 141 237 219 250 291 299 307 271 197 259 219 243 185 179 276
16 11 7 4 3 1 358 355 352 348 346 344 341 339 336 340 303 303 325 331 328 117 303 168 163 146 156 176 143 43 198 102 234 223 196 274 295 312 312 346 193 292 41 73 113 183 212
358 3 2 0 358 357 355 353 350 345 342 340 336 330 327 326 294 255 324 323 161 49 244 183 144 167 167 218 97 116 125 61 106 164 283 266 274 282 308 36 22 142 44 57 73 116 257
297 347 354 358 355 352 351 350 347 344 340 336 329 322 310 279 250 349 335 352 149 199 331 193 183 171 184 169 174 132 113 62 92 327 315 319 336 346 15 340 60 44 22 306 279 265 274
265 322 344 351 350 349 350 349 345 342 339 335 327 319 296 229 244 277 323 114 203 224 237 318 165 141 185 166 156 110 124 157 58 123 214 303 268 11 348 47 327 36 76 262 286 291 301
314 302 331 345 345 348 349 348 346 343 339 336 328 319 298 275 211 202 136 196 212 215 289 317 99 177 199 175 154 122 108 145 97 59 197 206 176 7 52 49 358 89 67 285 254 124 262
349 323 322 339 341 346 348 347 347 345 340 337 330 322 290 337 158 156 136 233 252 238 333 338 226 202 193 180 167 167 173 183 141 35 174 186 251 15 3 342 41 59 56 290 29 297 302
354 339 325 334 338 344 347 347 347 347 343 335 332 334 329 164 171 169 211 232 277 276 247 217 256 211 201 157 148 143 159 127 164 125 115 129 198 349 40 34 354 359 48 63 102 79 250
356 348 334 323 330 342 346 346 347 350 347 4 343 314 28 157 185 211 212 219 304 291 269 255 251 221 169 122 113 122 144 118 215 161 135 74 108 67 113 127 39 68 83 89 155 199 101
351 352 347 330 320 338 344 345 348 348 354 329 319 283 322 217 213 228 258 267 257 302 310 329 276 206 79 127 114 123 114 85 140 105 150 162 60 116 256 271 69 51 52 98 101 103 178
344 347 351 336 317 335 343 347 348 345 341 325 294 307 289 233 191 259 232 257 271 267 264 251 270 147 116 89 57 139 128 128 83 98 98 95 78 163 191 102 56 307 0 170 226 176 152
341 342 342 341 326 328 342 350 352 347 339 281 248 278 311 287 243 243 264 269 218 248 231 233 234 219 165 129 111 125 127 123 89 148 72 88 104 92 78 74 81 72 4 188 218 150 87
337 340 340 339 330 322 341 354 357 355 345 0 347 337 338 291 276 253 214 226 228 275 258 242 223 154 157 162 184 180 152 167 170 137 95 48 123 116 91 66 132 103 104 93 86 105 110
324 331 334 336 334 321 338 356 3 5 13 11 343 308 278 281 304 284 182 219 239 18 271 268 252 134 106 113 111 118 102 126 144 138 119 106 140 149 172 214 203 190 128 108 112 67 126
315 323 329 333 338 327 332 354 3 4 15 325 282 269 285 286 313 352 326 310 278 269 264 319 324 118 125 125 98 71 71 80 84 68 105 131 122 103 141 188 226 121 299 262 117 93 77
307 316 323 329 337 331 311 343 355 353 347 311 267 287 297 296 323 322 329 294 292 268 222 242 300 128 148 89 93 93 52 67 61 46 79 132 132 113 161 193 277 115 170 179 40 52 25
309 318 319 325 330 332 304 327 341 348 346 336 280 237 288 301 238 339 309 291 348 348 78 2 48 131 77 82 99 145 172 154 161 106 79 84 91 122 160 164 86 291 301 188 95 64 27
313 311 311 318 324 328 315 307 329 346 349 344 277 285 311 277 270 342 295 327 344 345 301 141 157 175 42 95 104 140 145 169 158 164 162 119 70 148 152 139 92 266 272 192 302 79 357
302 305 306 311 317 322 320 292 320 342 350 352 286 291 346 284 280 270 299 306 318 269 295 75 154 61 85 97 130 162 134 168 115 134 162 168 146 158 131 110 102 4 299 46 119 84 92
297 303 305 308 313 317 318 283 308 332 342 356 295 305 299 231 261 286 277 266 252 248 276 261 292 147 150 109 149 135 126 143 141 153 56 138 179 147 46 96 20 7 101 115 134 109 105